Preview of NWS' New Version of Forecast
This preview is not operational and should not be used for support decisions.

Regional Weather Roundup (RWR)

Issued by National Weather Service (NWS)

                            
000
ASUS43 KDMX 181501
RWRIA 

WEATHER ROUNDUP FOR IOWA
NATIONAL WEATHER SERVICE DES MOINES IA
1000 AM CDT WED SEP 18 2019

NOTE: "FAIR" INDICATES FEW OR NO CLOUDS BELOW 12,000 FEET WITH NO
SIGNIFICANT WEATHER AND/OR OBSTRUCTIONS TO VISIBILITY.

* - THESE STATIONS ARE NOT NWS STATIONS...THUS NOT UNDER NWS
QUALITY CONTROL.  THEY ALSO DO NOT REPORT WEATHER SUCH 
AS PRECIPITATION OR FOG.  

IAZ001>003-012>014-020>022-031>034-043>046-181600-
   NORTHWEST IOWA
  
CITY           SKY/WX    TMP DP  RH WIND       PRES   REMARKS
CARROLL *      CLOUDY    73  70  88 SE9       29.95F                  
CHEROKEE *     SUNNY     75  71  86 SW13      29.91S                  
DENISON *      PTSUNNY   72  72 100 CALM      29.96R                  
LE MARS *      MOSUNNY   77  70  78 W9        29.91R                  
SHELDON *      SUNNY     75  68  78 W10G18    29.88R                  
SIOUX CITY     SUNNY     78  69  73 W7        29.91R HX  80           
SPENCER        SUNNY     75  69  81 S14G22    29.90R                  
STORM LAKE *   SUNNY     72  70  94 S8        29.90F                  
$$
 
IAZ055>058-069>071-079>083-090>094-181600-
   SOUTHWEST IOWA
  
CITY           SKY/WX    TMP DP  RH WIND       PRES   REMARKS
ATLANTIC *     MOSUNNY   77  70  78 S6        29.96R                  
AUDUBON *      RAIN      75  70  83 CALM      29.98S                  
CLARINDA *     SUNNY     77  72  83 S8        29.97S                  
COUNCIL BLFS * CLOUDY    77  72  83 S9        29.93R                  
CRESTON *      SUNNY     79  68  69 S9        29.98R HX  81           
HARLAN  *      PTSUNNY   75  70  83 S7G13     29.96S                  
LAMONI         SUNNY     78  70  76 S7        30.00R HX  80           
RED OAK *      PTSUNNY   82  70  65 S9        29.96R HAZE    HX  86   
SHENANDOAH *   SUNNY     81  70  69 S10       29.94R HAZE    HX  84   
$$
 
IAZ047>049-059>061-072>074-084-181600-
   CENTRAL IOWA
  
CITY           SKY/WX    TMP DP  RH WIND       PRES   REMARKS
AMES           SUNNY     78  73  84 S9        29.98R HX  81           
ANKENY *       SUNNY     79  72  78 S10       29.99R HX  82           
BOONE *        SUNNY     79  73  83 S6G13     29.98R HX  82           
CHARITON *     SUNNY     79  75  89 S7        30.00R HX  82           
DES MOINES     MOSUNNY   79  70  74 S10       29.97R HX  82           
GRINNELL*      SUNNY     75  69  79 SE12      30.03R                  
KNOXVILLE *    SUNNY     77  73  88 S8        30.00R                  
MARSHALLTOWN   SUNNY     76  70  82 S12       30.01R                  
NEWTON *       SUNNY     77  72  83 S9        30.00R                  
PELLA *        SUNNY     79  68  68 S6        30.02R HX  81           
PERRY *        LGT RAIN  77  70  79 S7        29.97R                  
$$
 
IAZ004>006-015-016-023>025-035-036-181600-
   NORTH CENTRAL IOWA
  
CITY           SKY/WX    TMP DP  RH WIND       PRES   REMARKS
ALGONA *       MOSUNNY   72  70  94 S20G28    29.91F                  
ESTHERVILLE    SUNNY     70  67  90 S20G29    29.88S                  
FORT DODGE *   TSTM      72  69  90 VRB3      30.00R                  
MASON CITY     TSTM      67  64  90 S10G23    30.01F FOG              
FOREST CITY *  LGT RAIN  68  68 100 SE16      29.96F                  
IOWA FALLS *     N/A     76  67  72 S9        30.02R                  
$$

IAZ007>011-017>019-026>030-037>042-050>054-066-181600-
   NORTHEAST IOWA
  
CITY           SKY/WX    TMP DP  RH WIND       PRES   REMARKS
CEDAR RAPIDS   FAIR      74  68  81 SE12      30.04R                  
CHARLES CITY * FAIR      72  70  94 VRB3      30.06R                  
CLINTON *      FAIR      72  65  78 S9        30.10R                  
DECORAH *      FAIR      72  68  88 S7        30.06R                  
DUBUQUE        FAIR      71  65  81 S9        30.09R                  
MONTICELLO *   FAIR      73  70  88 SE9       30.06S                  
OELWEIN *      SUNNY     73  72  94 S10       30.06R                  
WATERLOO       FAIR      78  68  71 S8        30.02R HX  80           
$$
 
IAZ064-065-067-068-078-181600-
   EAST CENTRAL IOWA
  
CITY           SKY/WX    TMP DP  RH WIND       PRES   REMARKS
DAVENPORT      FAIR      75  64  68 SE8       30.09S                  
IOWA CITY      FAIR      75  67  76 S9        30.06R                  
MUSCATINE *    FAIR      75  66  73 S12G17    30.05F                  
QUAD CITIES    FAIR      75  65  70 SE7       30.07S                  
$$
 
IAZ062-063-075>077-085>089-095>099-181600-
   SOUTHEAST IOWA
  
CITY           SKY/WX    TMP DP  RH WIND       PRES   REMARKS
BURLINGTON     SUNNY     75  65  70 S7        30.06S                  
FAIRFIELD *    SUNNY     77  70  78 S12       30.04R                  
FORT MADISON * SUNNY     75  70  83 S8        30.06S                  
KEOKUK *       SUNNY     77  68  73 VRB7      30.05R                  
OSKALOOSA *    FAIR      77  67  72 S8        30.02S                  
OTTUMWA        SUNNY     77  68  73 S12       30.02R                  
WASHINGTON *     N/A    N/A N/A N/A MISG        N/A                   
$$

ABBREVIATIONS USED IN REMARKS
   TC - TEMPERATURES IN CELSIUS
  WCI - WIND CHILL INDEX
   HX - HEAT INDEX
  VSB - VISIBILITY  
$$